• Em Portugal
  • Lista de países
  • Para 7 dias
  • Temperatura da água
  • Mapas de satélite
  • Mapa do tempo
  • Widgets de tempo
  • user-avatar
    Iniciar Sessão

    Previsão horária em Dangriga

    Hoje, 22 Junho, Sexta-feira

    Tempo Temperatura Precipitação Vento Pressão Humidade
    00:00 +28°C° 0,3 mm 4 m/s 758 mmHg 94%
    01:00 +28°C° 0,3 mm 4 m/s 758 mmHg 95%
    02:00 +28°C° 0,3 mm 4 m/s 758 mmHg 96%
    03:00 +28°C° 0,3 mm 4 m/s 758 mmHg 96%
    04:00 +28°C° 0,4 mm 4 m/s 758 mmHg 97%
    05:00 +28°C° 0,4 mm 3 m/s 758 mmHg 97%
    06:00 +27°C° 0,4 mm 3 m/s 758 mmHg 98%
    07:00 +29°C° 0,2 mm 3 m/s 758 mmHg 92%
    08:00 +30°C° 0,2 mm 3 m/s 759 mmHg 86%
    09:00 +31°C° 0,2 mm 3 m/s 759 mmHg 80%
    10:00 +33°C° 0 mm 4 m/s 759 mmHg 72%
    11:00 +35°C° 0 mm 4 m/s 759 mmHg 64%
    12:00 +36°C° 0 mm 4 m/s 759 mmHg 56%
    13:00 +36°C° 0,1 mm 4 m/s 758 mmHg 58%
    14:00 +36°C° 0,1 mm 4 m/s 757 mmHg 59%
    15:00 +35°C° 0,1 mm 4 m/s 757 mmHg 61%
    16:00 +34°C° 0 mm 4 m/s 757 mmHg 67%
    17:00 +33°C° 0 mm 4 m/s 757 mmHg 74%
    18:00 +30°C° 0 mm 4 m/s 757 mmHg 80%
    19:00 +30°C° 0,1 mm 4 m/s 757 mmHg 84%
    20:00 +29°C° 0,1 mm 5 m/s 758 mmHg 88%
    21:00 +28°C° 0,1 mm 5 m/s 758 mmHg 92%
    22:00 +28°C° 0,8 mm 5 m/s 758 mmHg 93%
    23:00 +28°C° 0,8 mm 5 m/s 758 mmHg 94%

    Amanhã, 23 Junho, Sábado

    Tempo Temperatura Precipitação Vento Pressão Humidade
    00:00 +28°C° 0,8 mm 5 m/s 758 mmHg 94%
    01:00 +28°C° 1 mm 5 m/s 758 mmHg 95%
    02:00 +28°C° 1 mm 5 m/s 758 mmHg 95%
    03:00 +28°C° 1 mm 5 m/s 757 mmHg 95%
    04:00 +28°C° 1,5 mm 5 m/s 758 mmHg 96%
    05:00 +27°C° 1,5 mm 4 m/s 758 mmHg 97%
    06:00 +27°C° 1,5 mm 4 m/s 758 mmHg 97%
    07:00 +28°C° 1,1 mm 4 m/s 758 mmHg 95%
    08:00 +29°C° 1,1 mm 4 m/s 759 mmHg 93%
    09:00 +30°C° 1,1 mm 4 m/s 759 mmHg 91%
    10:00 +32°C° 0,1 mm 4 m/s 759 mmHg 82%
    11:00 +33°C° 0,1 mm 4 m/s 759 mmHg 74%
    12:00 +34°C° 0,1 mm 4 m/s 759 mmHg 66%
    13:00 +34°C° 0 mm 4 m/s 758 mmHg 67%
    14:00 +34°C° 0 mm 5 m/s 758 mmHg 69%
    15:00 +33°C° 0 mm 5 m/s 757 mmHg 70%
    16:00 +32°C° 0 mm 5 m/s 757 mmHg 74%
    17:00 +32°C° 0 mm 5 m/s 757 mmHg 78%
    18:00 +30°C° 0 mm 5 m/s 757 mmHg 81%
    19:00 +29°C° 0 mm 5 m/s 758 mmHg 84%
    20:00 +29°C° 0 mm 5 m/s 758 mmHg 87%
    21:00 +28°C° 0 mm 6 m/s 758 mmHg 90%
    22:00 +28°C° 0 mm 6 m/s 758 mmHg 90%
    23:00 +28°C° 0 mm 6 m/s 758 mmHg 91%

    Depois de amanhã, 24 Junho, Domingo

    Tempo Temperatura Precipitação Vento Pressão Humidade
    00:00 +28°C° 0 mm 6 m/s 759 mmHg 92%
    01:00 +27°C° 0 mm 5 m/s 758 mmHg 92%
    02:00 +27°C° 0 mm 5 m/s 758 mmHg 92%
    03:00 +27°C° 0 mm 5 m/s 758 mmHg 92%
    04:00 +27°C° 0 mm 5 m/s 758 mmHg 92%
    05:00 +27°C° 0 mm 5 m/s 758 mmHg 92%
    06:00 +27°C° 0 mm 5 m/s 758 mmHg 92%
    07:00 +29°C° 0,1 mm 5 m/s 758 mmHg 85%
    08:00 +32°C° 0,1 mm 5 m/s 759 mmHg 77%
    09:00 +33°C° 0,1 mm 5 m/s 759 mmHg 69%
    10:00 +34°C° 0 mm 5 m/s 759 mmHg 64%
    11:00 +35°C° 0 mm 5 m/s 759 mmHg 59%
    12:00 +36°C° 0 mm 5 m/s 759 mmHg 54%
    13:00 +36°C° 0,1 mm 5 m/s 758 mmHg 55%
    14:00 +36°C° 0,1 mm 5 m/s 757 mmHg 56%
    15:00 +35°C° 0,1 mm 5 m/s 757 mmHg 57%
    16:00 +34°C° 0 mm 5 m/s 757 mmHg 66%
    17:00 +32°C° 0 mm 5 m/s 757 mmHg 74%
    18:00 +30°C° 0 mm 6 m/s 758 mmHg 82%
    19:00 +29°C° 0,2 mm 6 m/s 758 mmHg 86%
    20:00 +28°C° 0,2 mm 6 m/s 759 mmHg 91%
    21:00 +28°C° 0,2 mm 6 m/s 759 mmHg 95%
    22:00 +28°C° 0,1 mm 6 m/s 759 mmHg 95%
    23:00 +28°C° 0,1 mm 6 m/s 759 mmHg 96%

    25 Junho, Segunda-feira

    Tempo Temperatura Precipitação Vento Pressão Humidade
    00:00 +28°C° 0,1 mm 6 m/s 759 mmHg 96%
    01:00 +27°C° 0 mm 6 m/s 759 mmHg 96%
    02:00 +27°C° 0 mm 6 m/s 758 mmHg 96%
    03:00 +27°C° 0 mm 6 m/s 758 mmHg 96%
    04:00 +27°C° 0,1 mm 6 m/s 758 mmHg 96%
    05:00 +27°C° 0,1 mm 6 m/s 758 mmHg 96%
    06:00 +27°C° 0,1 mm 6 m/s 758 mmHg 96%
    07:00 +29°C° 0,1 mm 6 m/s 759 mmHg 89%
    08:00 +30°C° 0,1 mm 6 m/s 759 mmHg 83%
    09:00 +32°C° 0,1 mm 6 m/s 760 mmHg 76%
    10:00 +33°C° 0 mm 5 m/s 759 mmHg 69%
    11:00 +35°C° 0 mm 5 m/s 759 mmHg 62%
    12:00 +36°C° 0 mm 5 m/s 759 mmHg 54%
    13:00 +36°C° 0 mm 5 m/s 758 mmHg 55%
    14:00 +35°C° 0 mm 5 m/s 758 mmHg 55%
    15:00 +35°C° 0 mm 6 m/s 757 mmHg 55%
    16:00 +34°C° 0 mm 6 m/s 758 mmHg 63%
    17:00 +32°C° 0 mm 6 m/s 758 mmHg 71%
    18:00 +30°C° 0 mm 6 m/s 758 mmHg 80%
    19:00 +29°C° 0,1 mm 6 m/s 759 mmHg 84%
    20:00 +28°C° 0,1 mm 6 m/s 759 mmHg 89%
    21:00 +27°C° 0,1 mm 6 m/s 760 mmHg 94%
    22:00 +27°C° 0,2 mm 6 m/s 760 mmHg 94%
    23:00 +27°C° 0,2 mm 6 m/s 759 mmHg 95%

    26 Junho, Terça-feira

    Tempo Temperatura Precipitação Vento Pressão Humidade
    00:00 +27°C° 0,2 mm 6 m/s 759 mmHg 96%
    01:00 +27°C° 0,2 mm 6 m/s 759 mmHg 96%
    02:00 +27°C° 0,2 mm 6 m/s 759 mmHg 96%
    03:00 +27°C° 0,2 mm 6 m/s 758 mmHg 96%
    04:00 +27°C° 0,1 mm 6 m/s 759 mmHg 96%
    05:00 +27°C° 0,1 mm 6 m/s 759 mmHg 96%
    06:00 +27°C° 0,1 mm 6 m/s 759 mmHg 96%
    07:00 +29°C° 0,6 mm 6 m/s 759 mmHg 90%
    08:00 +30°C° 0,6 mm 6 m/s 760 mmHg 85%
    09:00 +32°C° 0,6 mm 6 m/s 760 mmHg 79%
    10:00 +32°C° 0,2 mm 5 m/s 760 mmHg 77%
    11:00 +33°C° 0,2 mm 5 m/s 760 mmHg 74%
    12:00 +33°C° 0,2 mm 5 m/s 759 mmHg 72%
    13:00 +33°C° 0,4 mm 5 m/s 759 mmHg 72%
    14:00 +33°C° 0,4 mm 5 m/s 759 mmHg 72%
    15:00 +33°C° 0,4 mm 5 m/s 758 mmHg 71%
    16:00 +32°C° 0,4 mm 5 m/s 759 mmHg 75%
    17:00 +30°C° 0,4 mm 5 m/s 759 mmHg 78%
    18:00 +29°C° 0,4 mm 5 m/s 759 mmHg 82%
    19:00 +29°C° 0,2 mm 5 m/s 759 mmHg 87%
    20:00 +28°C° 0,2 mm 6 m/s 760 mmHg 92%
    21:00 +27°C° 0,2 mm 6 m/s 760 mmHg 98%
    22:00 +27°C° 0,3 mm 6 m/s 760 mmHg 98%
    23:00 +27°C° 0,3 mm 5 m/s 760 mmHg 98%

    27 Junho, Quarta-feira

    Tempo Temperatura Precipitação Vento Pressão Humidade
    00:00 +27°C° 0,3 mm 5 m/s 759 mmHg 98%
    01:00 +27°C° 0,4 mm 5 m/s 759 mmHg 98%
    02:00 +27°C° 0,4 mm 5 m/s 759 mmHg 98%
    03:00 +27°C° 0,4 mm 5 m/s 758 mmHg 98%
    04:00 +27°C° 0,8 mm 4 m/s 759 mmHg 98%
    05:00 +27°C° 0,8 mm 4 m/s 759 mmHg 98%
    06:00 +27°C° 0,8 mm 4 m/s 759 mmHg 98%
    07:00 +28°C° 2 mm 4 m/s 759 mmHg 94%
    08:00 +29°C° 2 mm 4 m/s 760 mmHg 90%
    09:00 +30°C° 2 mm 4 m/s 760 mmHg 86%
    10:00 +30°C° 1,3 mm 4 m/s 760 mmHg 83%
    11:00 +30°C° 1,3 mm 4 m/s 760 mmHg 80%
    12:00 +32°C° 1,3 mm 4 m/s 759 mmHg 77%
    13:00 +32°C° 0,5 mm 5 m/s 759 mmHg 74%
    14:00 +33°C° 0,5 mm 5 m/s 758 mmHg 72%
    15:00 +33°C° 0,5 mm 5 m/s 758 mmHg 69%
    16:00 +32°C° 1,2 mm 5 m/s 758 mmHg 74%
    17:00 +30°C° 1,2 mm 6 m/s 759 mmHg 78%
    18:00 +29°C° 1,2 mm 6 m/s 759 mmHg 83%
    19:00 +28°C° 1,2 mm 6 m/s 759 mmHg 87%
    20:00 +27°C° 1,2 mm 6 m/s 759 mmHg 90%
    21:00 +27°C° 1,2 mm 6 m/s 760 mmHg 94%
    22:00 +27°C° 0,9 mm 6 m/s 760 mmHg 95%
    23:00 +26°C° 0,9 mm 5 m/s 759 mmHg 96%
    Mostrar mais